Location: Coll
(42.4728°N, 0.7714°E)
Time: 12:03:23
(UTC+00:00)

CZ-4B R/B - Pass Details

Date: 23 October 2020
Orbit: 388 x 461 km, 97.6° (Epoch: 30 November)

Event Time Altitude Azimuth Distance (km) Brightness Sun altitude
Rises 03:53:21 0° 138° (SE) 2,485 5.6 -27.6°
Reaches altitude 10° 03:55:39 10° 124° (ESE) 1,617 4.8 -27.2°
Maximum altitude 03:58:28 24° 69° (ENE) 1,022 3.9 -26.6°
Drops below altitude 10° 04:01:18 10° 15° (NNE) 1,624 4.5 -26.1°
Sets 04:03:36 0° 1° (N) 2,499 5.3 -25.7°
